Location: York
(31.8935°S, 116.7682°E)
Time: 18:11:19
(UTC+08:00)

deb Explorer IX - Pass Details

Date: 25 September 2022
Orbit: 533 x 1057 km, 38.8° (Epoch: 30 November)

Event Time Altitude Azimuth Distance (km) Brightness Sun altitude
Rises 19:35:43 0° 327° (NNW) 3,357 ? -18.7°
Reaches altitude 10° 19:38:44 10° 339° (NNW) 2,327 ? -19.3°
Enters shadow 19:42:35 25° 22° (NNE) 1,414 ? -20.1°
Maximum altitude 19:43:11 26° 34° (NE) 1,377 - -20.2°
Drops below altitude 10° 19:47:10 10° 90° (E) 2,059 - -21.0°
Sets 19:49:40 0° 103° (ESE) 2,895 - -21.5°
